download

[ 2000 Thread / 0 Reply ]

Moderate: *Opening*

    Subject Author Replies/Views Last Post
common   Guitar Hero Legends Of Rock#33; Ps3 tom 2010 0/133 tom 2010 03:13 PM
common   AIO Spyware Aplicaciones tom 2010 0/59 tom 2010 03:13 PM
common   Bmx Bike tom 2010 0/54 tom 2010 03:13 PM
common   Fs : Neon Wire tom 2010 0/53 tom 2010 03:13 PM
common   2 X Apple Iphone 3g 8gb tom 2010 0/86 tom 2010 03:13 PM
common   affecting gold prices 9 tom 2010 0/51 tom 2010 03:13 PM
common   Nokia E71 On Off Botton Broken Can Be Fixed tom 2010 0/71 tom 2010 03:13 PM
common   Playstation 3, 80gb, Dual Shock 3 #036;450 tom 2010 0/54 tom 2010 03:13 PM
common   MultiTranse v5.0.2 (NEW) tom 2010 0/49 tom 2010 03:13 PM
common   Nokia N95 8gb Excellent Condition tom 2010 0/45 tom 2010 03:12 PM
common   Nokia N96 Forsale Cheap Cheap Cheap (nsw Buyers Only) tom 2010 0/52 tom 2010 03:12 PM
common   USB Lock AP v2.5 tom 2010 0/57 tom 2010 03:12 PM
common   Phones For Sale, Brand New In Box Unlocked#33; tom 2010 0/51 tom 2010 03:12 PM
common   Bang amp; Olufssen Stereo tom 2010 0/42 tom 2010 03:12 PM
common   Cheap Bmx Bike tom 2010 0/51 tom 2010 03:12 PM
common   Pocket Pc tom 2010 0/59 tom 2010 03:12 PM
common   Cd Player Going Cheaptoday Only tom 2010 0/51 tom 2010 03:12 PM
common   Ps2 + 16 Games + 2 Controllers Etc Etc tom 2010 0/47 tom 2010 03:12 PM
common   Advanced WindowsCare Professional 2.9.0.979 ML tom 2010 0/35 tom 2010 03:12 PM
common   Alpine Amp, Cd, Sub In Box tom 2010 0/50 tom 2010 03:12 PM
common   Home Gym. tom 2010 0/48 tom 2010 03:12 PM
common   Samsung 16gb Innov8 8mp Camera Phone#33; tom 2010 0/65 tom 2010 03:12 PM
common   Stereo Setup tom 2010 0/58 tom 2010 03:12 PM
common   Apollo No1 Video Converter v4.2.14 tom 2010 0/48 tom 2010 03:12 PM
common   Alpine Amp V12 tom 2010 0/61 tom 2010 03:12 PM
common   XP 75 MB Edition !!! tom 2010 0/47 tom 2010 03:12 PM
common   Coppermatic 280l Hotwater System tom 2010 0/55 tom 2010 03:12 PM
common   Boost Gauge tom 2010 0/48 tom 2010 03:12 PM
common   Garage Sale Bne tom 2010 0/48 tom 2010 03:12 PM
common   Portable Reaper v2.52 tom 2010 0/45 tom 2010 03:12 PM
common   Fs: D tom 2010 0/39 tom 2010 03:12 PM
common   2g Iphone tom 2010 0/54 tom 2010 03:12 PM
common   Near New Infinity Rowing Machine tom 2010 0/49 tom 2010 03:12 PM
common   Sub And Amp tom 2010 0/55 tom 2010 03:11 PM
common   Spyware Doctor v6.0.0.362 NEW UPDATED Patch tom 2010 0/45 tom 2010 03:11 PM
common   Subs Amps And Wiring Going Cheapp Need The Money#33; tom 2010 0/59 tom 2010 03:11 PM
common   goodwill silver spring 8 tom 2010 0/52 tom 2010 03:11 PM
common   6x2x2 Fish Tank, Complete Set Up tom 2010 0/47 tom 2010 03:11 PM
common   Toolbox For Your Ute tom 2010 0/42 tom 2010 03:11 PM
common   320l Fridge / Freezer tom 2010 0/46 tom 2010 03:11 PM
common   Dj#39;s And Setup#33; tom 2010 0/59 tom 2010 03:11 PM
common   Htc Pro Touch tom 2010 0/40 tom 2010 03:11 PM
common   5x2x2 Fish Tank On Stand tom 2010 0/60 tom 2010 03:11 PM
common   Senco Framing And Finishing Air Guns amp; Ramset Single Shot tom 2010 0/55 tom 2010 03:11 PM
common   SpyHunter Security Suite v3.5.11 _ MK TEAM Crack tom 2010 0/60 tom 2010 03:11 PM
common   New#33; Home Brew Kit tom 2010 0/39 tom 2010 03:11 PM
common   Genuine 06 Thumpstar tom 2010 0/34 tom 2010 03:11 PM
common   Pioneer Sub 1400wats 12quot; tom 2010 0/54 tom 2010 03:11 PM
common   Upright Tool Boxes For Sale tom 2010 0/53 tom 2010 03:11 PM
common   Computer Tower And Screen tom 2010 0/40 tom 2010 03:11 PM
common   (RS) Nero 9 Serials ! tom 2010 0/45 tom 2010 03:11 PM
common   Fs: Black 8 Gig Samsung Omnia... tom 2010 0/47 tom 2010 03:11 PM
common   Samsung I900 Omnia. Htc Tyttn tom 2010 0/46 tom 2010 03:11 PM
common   (RS.com) Adobe Photoshop CS2 Full tom 2010 0/51 tom 2010 03:11 PM
common   Kaspersky Keys Vaild Till 3 _ September _ 2010 tom 2010 0/48 tom 2010 03:11 PM
common   Free To Good Homes#33; tom 2010 0/48 tom 2010 03:11 PM
common   Subs And Amp tom 2010 0/62 tom 2010 03:11 PM
common   Last Vip Future Ticket tom 2010 0/52 tom 2010 03:10 PM
common   Full Car Audio System tom 2010 0/56 tom 2010 03:10 PM
common   WinRAR v3.80 Final _ Fully Registered tom 2010 0/39 tom 2010 03:10 PM
common   Audiobahn 400w Mono Amp tom 2010 0/58 tom 2010 03:10 PM
common   Samsung Omnia 8gb tom 2010 0/42 tom 2010 03:10 PM
common   Drif10 (driften) Qld tom 2010 0/54 tom 2010 03:10 PM
common   Playstation 2 tom 2010 0/55 tom 2010 03:10 PM
common   Nokia N95 tom 2010 0/72 tom 2010 03:10 PM
common   Rapidshare point grabber 1.0 tom 2010 0/66 tom 2010 03:10 PM
common   Sony Vegas Platinum Edition 9.0 All plugins tom 2010 0/43 tom 2010 03:10 PM
common   Sony Ericsson K850i tom 2010 0/57 tom 2010 03:10 PM
common   Car Audio, Ipod Touch, Motorbike. tom 2010 0/54 tom 2010 03:10 PM
common   2g Iphone tom 2010 0/50 tom 2010 03:10 PM
common   Adobe Reader Lite 9.0.0.332 Revision 2 (Latest English Version) tom 2010 0/49 tom 2010 03:10 PM
common   12ft Tinny tom 2010 0/60 tom 2010 03:10 PM
common   Schwinn Mesa Mountain Bike 24 Speed tom 2010 0/50 tom 2010 03:10 PM
common   Registry Mechanic v8.0.0.900 key tom 2010 0/80 tom 2010 03:10 PM
common   Telstra Wireless Usb Moderm tom 2010 0/36 tom 2010 03:10 PM
common   Alpine V12 T505 Amplifier tom 2010 0/86 tom 2010 03:10 PM
common   Hitachi Dvd Camcorder tom 2010 0/45 tom 2010 03:10 PM
common   Xbox 360 280ono tom 2010 0/51 tom 2010 03:10 PM
common   Narva Ultima Blue 175 Spot Lights tom 2010 0/47 tom 2010 03:10 PM
common   FlashFXP 3.7.5 Build 1296 tom 2010 0/56 tom 2010 03:10 PM
common   My Stuff For Sale tom 2010 0/52 tom 2010 03:10 PM
common   Ps3 Rise Of Argonauts, Reviewers Copy tom 2010 0/54 tom 2010 03:09 PM
common   Xilisoft Video Cutter 1.0.31.0905 tom 2010 0/54 tom 2010 03:09 PM
common   7quot; Tft Screen tom 2010 0/51 tom 2010 03:09 PM
common   PowerDVD 8 Ultra (Pre_Activated) tom 2010 0/45 tom 2010 03:09 PM
common   gt;gt;gt;rolex amp; Motorola Hiptoplt;lt;lt; tom 2010 0/55 tom 2010 03:09 PM
common   Rc Shells tom 2010 0/61 tom 2010 03:09 PM
common   Nissan Tiida Boot Mat tom 2010 0/42 tom 2010 03:09 PM
common   Broadband Modem tom 2010 0/61 tom 2010 03:09 PM
common   Selling Pioneer Headunit tom 2010 0/64 tom 2010 03:09 PM
common   Framing Studio v2.51 tom 2010 0/45 tom 2010 03:09 PM
common   2 Cadence 12quot; Subwoofers In Enclosure, And A Blapunkt Amp tom 2010 0/57 tom 2010 03:09 PM
common   3 Mobile Broadband Prepaid 1 Month 2gig+starter Kit tom 2010 0/48 tom 2010 03:09 PM
common   Fs tom 2010 0/56 tom 2010 03:09 PM
common   laird silver caulk 9 tom 2010 0/62 tom 2010 03:09 PM
common   Tamiya Rc Drift Car Tt tom 2010 0/57 tom 2010 03:09 PM
common   Jabra Bt135 tom 2010 0/59 tom 2010 03:09 PM
common   GetData Zip Repair Pro v4.2.0.952 tom 2010 0/50 tom 2010 03:09 PM
common   Pimp Nike Shox Shoes tom 2010 0/57 tom 2010 03:09 PM
common   The Sims 3 tom 2010 0/55 tom 2010 03:09 PM
common   Brand New In Box Unopened Nokia E71 tom 2010 0/68 tom 2010 03:09 PM
common   Phones X8 tom 2010 0/54 tom 2010 03:09 PM
common   Logitech tom 2010 0/46 tom 2010 03:09 PM
common   Brand New Mongoose Tyax Super tom 2010 0/55 tom 2010 03:09 PM
common   Computer tom 2010 0/45 tom 2010 03:08 PM
common   Jungle Python tom 2010 0/60 tom 2010 03:08 PM
common   Dual 12 tom 2010 0/87 tom 2010 03:08 PM
common   12 Inch Sub Boxes tom 2010 0/47 tom 2010 03:08 PM
common   Sony Xperia Mobile Phone,only Used Once tom 2010 0/61 tom 2010 03:08 PM
common   Monza Bucket Seat [qld] tom 2010 0/54 tom 2010 03:08 PM
common   IDeskSoft Desktop Icon Toy v3.3 tom 2010 0/48 tom 2010 03:08 PM
common   Nokia N95, Unlocked Has Box And Accessories tom 2010 0/59 tom 2010 03:08 PM
common   Xbox 360 tom 2010 0/58 tom 2010 03:08 PM
common   Lg 26quot; (66cm) Lcd Tv tom 2010 0/45 tom 2010 03:08 PM
common   20ft Storage Container tom 2010 0/54 tom 2010 03:08 PM
common   Atomik 70cc Thumpstar #036;350 tom 2010 0/84 tom 2010 03:08 PM
common   ImTOO DVD Ripper Ultimate 5.0.44.0925 tom 2010 0/62 tom 2010 03:08 PM
common   Nokia N95 Black 8g Brand New In Box 12mnths Warr tom 2010 0/40 tom 2010 03:08 PM
common   E.o.i Full Stanton Dj Setup tom 2010 0/56 tom 2010 03:08 PM
common   Citizen Sport Watch tom 2010 0/62 tom 2010 03:08 PM
common   140 Cc Thumpster tom 2010 0/45 tom 2010 03:08 PM
common   09 125 Pit Bike tom 2010 0/52 tom 2010 03:08 PM
common   Alpine Type R 1500watts Peak, Sony Amp 1000watts tom 2010 0/51 tom 2010 03:08 PM
common   FLV to AVI MPEG WMV 3GP MP4 iPod Converter V3.9.1108 tom 2010 0/66 tom 2010 03:08 PM
common   12 Inch Kenwood No Box tom 2010 0/65 tom 2010 03:08 PM
common   Gq Patrol Bullbar tom 2010 0/66 tom 2010 03:08 PM
common   Dvd Player And Sony Screen tom 2010 0/53 tom 2010 03:07 PM
common   Kara Kar Float tom 2010 0/58 tom 2010 03:07 PM
common   Magic DVD Copier v4.9.0.4 tom 2010 0/58 tom 2010 03:07 PM
common   Wanted : Nokia N97 tom 2010 0/68 tom 2010 03:07 PM
common   Xbox 360#39;s Need Gone Now tom 2010 0/56 tom 2010 03:07 PM
common   100cc Race Go Kart tom 2010 0/45 tom 2010 03:07 PM
common   F/s Apple Laptop Ibook G4 #036;600 O.n.o tom 2010 0/62 tom 2010 03:07 PM
common   Toshiba A200 Laptop Combo tom 2010 0/62 tom 2010 03:07 PM
common   Couple Of Items tom 2010 0/74 tom 2010 03:07 PM
common   Cheap Ipod Touch tom 2010 0/42 tom 2010 03:07 PM
common   Brosnan Golf Clubs tom 2010 0/86 tom 2010 03:07 PM
common   Ibm Computer Running Windows Xp Has Monitor Mouse And Keyboard tom 2010 0/45 tom 2010 03:07 PM
common   Ashton Electric Drum Kit tom 2010 0/46 tom 2010 03:07 PM
common   Dog Radio Training Electronic Collar With Remote tom 2010 0/50 tom 2010 03:07 PM
common   Logitech X540 5.1 Speaker tom 2010 0/50 tom 2010 03:07 PM
common   Dvd Player For Sale tom 2010 0/53 tom 2010 03:07 PM
common   Samsung Sgh tom 2010 0/58 tom 2010 03:07 PM
common   3ft Tank New And Lava Rock tom 2010 0/70 tom 2010 03:07 PM
common   6 Ft Fish Tank 4 Sale tom 2010 0/77 tom 2010 03:07 PM
common   Sony Ericsson W760i 3.2mpcamera tom 2010 0/56 tom 2010 03:07 PM
common   Xbox 360 Premium 2 W/less Controllers, 2 20gb Harddrives 2 Games. tom 2010 0/58 tom 2010 03:07 PM
common   Jvc Headunit tom 2010 0/65 tom 2010 03:06 PM
common   Kenwood Stereo System tom 2010 0/50 tom 2010 03:06 PM
common   Blackberry Storm tom 2010 0/69 tom 2010 03:06 PM
common   Unreal Tournament.. tom 2010 0/49 tom 2010 03:06 PM
common   2 Yr Ol Pure Bread Staffy tom 2010 0/56 tom 2010 03:06 PM
common   2 X 12quot; Slimline Sub Boxes tom 2010 0/52 tom 2010 03:06 PM
common   Htc Diamond Forsale tom 2010 0/47 tom 2010 03:06 PM
common   2 18 Inch Crome Mags tom 2010 0/55 tom 2010 03:06 PM
common   Kicker Audio Gear tom 2010 0/52 tom 2010 03:06 PM
common   Pokemon Pearl All 493 Pokemon And Everything Completed tom 2010 0/60 tom 2010 03:06 PM
common   Clip On Protector For A Ps3 (not Slimline Or 120g) tom 2010 0/46 tom 2010 03:06 PM
common   Female Blue Staffy Pups Big Blues Blue Parents tom 2010 0/69 tom 2010 03:06 PM
common   1/8 Scale Nitro Buggy tom 2010 0/50 tom 2010 03:06 PM
common   Alpine V12 Amp And Clarion Sub (new) tom 2010 0/49 tom 2010 03:06 PM
common   Boss Audio Mp3 Head Unit tom 2010 0/52 tom 2010 03:06 PM
common   Hewlett Packard Compaq Nx9010 Laptop tom 2010 0/78 tom 2010 03:06 PM
common   Alpine 12s tom 2010 0/62 tom 2010 03:06 PM
common   Bar Fridge Forsale tom 2010 0/61 tom 2010 03:06 PM
common   Premier Drum Kit tom 2010 0/62 tom 2010 03:06 PM
common   Pioneer 1000w 12quot; Sub tom 2010 0/53 tom 2010 03:06 PM
common   Ipod Touch 8gb And Ipod Nano 16gb tom 2010 0/65 tom 2010 03:06 PM
common   Black Leater Lounge Suit tom 2010 0/49 tom 2010 03:06 PM
common   Hyper 7 Pbs Pro,yoke Drifter tom 2010 0/48 tom 2010 03:06 PM
common   Extreme Warning To Fellow Member tom 2010 0/51 tom 2010 03:05 PM
common   quot;vlt 88quot; tom 2010 0/59 tom 2010 03:05 PM
common   Kenwood 350 Rms 12quot; Sub In Ported Box tom 2010 0/44 tom 2010 03:05 PM
common   Uniden Trax tom 2010 0/47 tom 2010 03:05 PM
common   Light Up Pedals,suit Automatic tom 2010 0/48 tom 2010 03:05 PM
common   For Sale Clarion Pro Audio tom 2010 0/49 tom 2010 03:05 PM
common   Vic Acer Pc tom 2010 0/45 tom 2010 03:05 PM
common   Xbox 360 With Red Ring Of Death tom 2010 0/112 tom 2010 03:05 PM
common   Dirtbike 125cc [nsw] tom 2010 0/52 tom 2010 03:05 PM
common   Football Table, Futsal Table tom 2010 0/57 tom 2010 03:05 PM
common   Alpine Type tom 2010 0/42 tom 2010 03:05 PM
common   32gig Ipod Touch Brand New In Box tom 2010 0/53 tom 2010 03:05 PM
common   Kenwood Mono Block Amp tom 2010 0/61 tom 2010 03:05 PM
common   Bargain#33;mens Rado Jubilee Watch tom 2010 0/67 tom 2010 03:05 PM
common   Mongoose Bmx tom 2010 0/47 tom 2010 03:05 PM
common   Lakai Shirt tom 2010 0/63 tom 2010 03:05 PM
common   Sapphire Radeon Hd 4890 Video Cards tom 2010 0/43 tom 2010 03:05 PM
common   125 Cc Thumpster tom 2010 0/40 tom 2010 03:05 PM
common   Guitar Hero 5 For Ps3 tom 2010 0/52 tom 2010 03:05 PM
common   4 Inch Speco Tacho With Shift Light tom 2010 0/58 tom 2010 03:05 PM
common   Kenwood Amp tom 2010 0/59 tom 2010 03:05 PM
common   Portable Flash Menu Labs Pro 2.05 tom 2010 0/69 tom 2010 03:02 PM
common   Kenwood 350 Rms 12quot; Sub In Ported Box tom 2010 0/53 tom 2010 03:02 PM
common   Ps3 80gig 1 Controller And 2 Games tom 2010 0/66 tom 2010 03:02 PM
common   Alpinestars Tech 10#39;s Motocross Boots, As New tom 2010 0/55 tom 2010 03:02 PM
common   Ipod Nano 8gb 4th Generation #33; tom 2010 0/48 tom 2010 03:02 PM
common   Wave Master, Surf Ski tom 2010 0/65 tom 2010 03:02 PM
common   Portable Pegasys DivX Author 1.5.0.173 tom 2010 0/65 tom 2010 03:02 PM
common   Amp And Sub For Sale tom 2010 0/60 tom 2010 03:02 PM
common   Brand New Honda Accord Adjustable Lowering Springs tom 2010 0/59 tom 2010 03:02 PM
    Type Sorted By Time